Time,TemperatureF,DewpointF,PressureIn,WindDirection,WindDirectionDegrees,WindSpeedMPH,WindSpeedGustMPH,Humidity,HourlyPrecipIn,Conditions,Clouds,dailyrainin,SoftwareType,DateUTC
2013-02-26 00:00:00,28.6,24.1,30.23,ESE,107,0.0,1.0,83,0.00,,,0.00,WUHU216DAVISVP2,2013-02-26 05:00:00,
2013-02-26 00:05:00,28.4,23.9,30.23,ESE,107,0.0,1.0,83,0.00,,,0.00,WUHU216DAVISVP2,2013-02-26 05:05:00,
2013-02-26 00:10:00,28.3,24.1,30.23,ESE,107,0.0,0.0,84,0.00,,,0.00,WUHU216DAVISVP2,2013-02-26 05:10:00,
2013-02-26 00:15:00,28.2,24.2,30.22,ESE,107,0.0,0.0,85,0.00,,,0.00,WUHU216DAVISVP2,2013-02-26 05:15:00,
2013-02-26 00:20:00,28.2,24.2,30.22,ESE,107,0.0,0.0,85,0.00,,,0.00,WUHU216DAVISVP2,2013-02-26 05:20:00,
2013-02-26 00:25:00,28.1,23.9,30.22,ESE,107,0.0,0.0,84,0.00,,,0.00,WUHU216DAVISVP2,2013-02-26 05:25:00,
2013-02-26 00:30:00,28.0,23.8,30.22,ESE,107,0.0,0.0,84,0.00,,,0.00,WUHU216DAVISVP2,2013-02-26 05:30:00,
2013-02-26 00:35:00,27.8,23.9,30.23,ESE,107,0.0,0.0,85,0.00,,,0.00,WUHU216DAVISVP2,2013-02-26 05:35:00,
2013-02-26 00:40:00,27.7,24.0,30.23,ESE,107,0.0,0.0,86,0.00,,,0.00,WUHU216DAVISVP2,2013-02-26 05:40:00,
2013-02-26 00:45:00,27.6,23.9,30.23,ESE,107,0.0,0.0,86,0.00,,,0.00,WUHU216DAVISVP2,2013-02-26 05:45:00,
2013-02-26 00:50:00,27.5,23.6,30.22,ESE,107,0.0,0.0,85,0.00,,,0.00,WUHU216DAVISVP2,2013-02-26 05:50:00,
2013-02-26 00:55:00,27.4,23.5,30.22,ESE,107,0.0,0.0,85,0.00,,,0.00,WUHU216DAVISVP2,2013-02-26 05:55:00,
2013-02-26 01:00:00,27.2,23.5,30.22,ESE,107,0.0,0.0,86,0.00,,,0.00,WUHU216DAVISVP2,2013-02-26 06:00:00,
2013-02-26 01:05:00,27.1,23.4,30.22,ESE,107,0.0,0.0,86,0.00,,,0.00,WUHU216DAVISVP2,2013-02-26 06:05:00,
2013-02-26 01:10:00,27.0,23.3,30.22,ESE,107,0.0,0.0,86,0.00,,,0.00,WUHU216DAVISVP2,2013-02-26 06:10:00,
2013-02-26 01:15:00,26.8,23.1,30.22,ESE,107,0.0,0.0,86,0.00,,,0.00,WUHU216DAVISVP2,2013-02-26 06:15:00,
2013-02-26 01:20:00,26.7,23.3,30.23,ESE,107,0.0,0.0,87,0.00,,,0.00,WUHU216DAVISVP2,2013-02-26 06:20:00,
2013-02-26 01:25:00,26.8,23.7,30.24,ESE,107,0.0,0.0,88,0.00,,,0.00,WUHU216DAVISVP2,2013-02-26 06:25:00,
2013-02-26 01:30:00,26.8,23.4,30.24,ESE,107,0.0,1.0,87,0.00,,,0.00,WUHU216DAVISVP2,2013-02-26 06:30:00,
2013-02-26 01:35:00,26.8,23.4,30.24,ESE,107,0.0,1.0,87,0.00,,,0.00,WUHU216DAVISVP2,2013-02-26 06:35:00,
2013-02-26 01:40:00,26.7,23.3,30.24,ESE,107,0.0,1.0,87,0.00,,,0.00,WUHU216DAVISVP2,2013-02-26 06:40:00,
2013-02-26 01:45:00,26.6,23.2,30.23,ESE,107,0.0,1.0,87,0.00,,,0.00,WUHU216DAVISVP2,2013-02-26 06:45:00,
2013-02-26 01:50:00,26.5,23.1,30.23,ESE,107,0.0,0.0,87,0.00,,,0.00,WUHU216DAVISVP2,2013-02-26 06:50:00,
2013-02-26 01:55:00,26.4,23.3,30.23,ESE,107,0.0,0.0,88,0.00,,,0.00,WUHU216DAVISVP2,2013-02-26 06:55:00,
2013-02-26 02:00:00,26.4,23.3,30.23,ESE,107,0.0,0.0,88,0.00,,,0.00,WUHU216DAVISVP2,2013-02-26 07:00:00,
2013-02-26 02:05:00,26.3,23.2,30.24,ESE,107,0.0,0.0,88,0.00,,,0.00,WUHU216DAVISVP2,2013-02-26 07:05:00,
2013-02-26 02:10:00,26.3,23.2,30.24,ESE,107,0.0,0.0,88,0.00,,,0.00,WUHU216DAVISVP2,2013-02-26 07:10:00,
2013-02-26 02:15:00,26.2,23.1,30.24,ESE,107,0.0,0.0,88,0.00,,,0.00,WUHU216DAVISVP2,2013-02-26 07:15:00,
2013-02-26 02:20:00,26.1,23.0,30.24,ESE,107,0.0,0.0,88,0.00,,,0.00,WUHU216DAVISVP2,2013-02-26 07:20:00,
2013-02-26 02:25:00,26.2,23.4,30.24,ESE,107,0.0,0.0,89,0.00,,,0.00,WUHU216DAVISVP2,2013-02-26 07:25:00,
2013-02-26 02:30:00,26.2,23.4,30.23,ESE,107,0.0,0.0,89,0.00,,,0.00,WUHU216DAVISVP2,2013-02-26 07:30:00,
2013-02-26 02:35:00,26.2,23.4,30.23,ESE,107,0.0,0.0,89,0.00,,,0.00,WUHU216DAVISVP2,2013-02-26 07:35:00,
2013-02-26 02:40:00,26.1,23.3,30.23,ESE,107,0.0,0.0,89,0.00,,,0.00,WUHU216DAVISVP2,2013-02-26 07:40:00,
2013-02-26 02:45:00,26.1,23.3,30.22,ESE,107,0.0,0.0,89,0.00,,,0.00,WUHU216DAVISVP2,2013-02-26 07:45:00,
2013-02-26 02:50:00,26.1,23.3,30.22,ESE,107,0.0,0.0,89,0.00,,,0.00,WUHU216DAVISVP2,2013-02-26 07:50:00,
2013-02-26 02:55:00,26.1,23.5,30.22,ESE,107,0.0,0.0,90,0.00,,,0.00,WUHU216DAVISVP2,2013-02-26 07:55:00,
2013-02-26 03:00:00,26.2,23.6,30.21,ESE,107,0.0,0.0,90,0.00,,,0.00,WUHU216DAVISVP2,2013-02-26 08:00:00,
2013-02-26 03:05:00,26.2,23.6,30.22,ESE,107,0.0,0.0,90,0.00,,,0.00,WUHU216DAVISVP2,2013-02-26 08:05:00,
2013-02-26 03:10:00,26.2,23.6,30.21,ESE,107,0.0,0.0,90,0.00,,,0.00,WUHU216DAVISVP2,2013-02-26 08:10:00,
2013-02-26 03:15:00,26.3,23.7,30.21,ESE,107,0.0,0.0,90,0.00,,,0.00,WUHU216DAVISVP2,2013-02-26 08:15:00,
2013-02-26 03:20:00,26.3,23.7,30.21,ESE,107,0.0,0.0,90,0.00,,,0.00,WUHU216DAVISVP2,2013-02-26 08:20:00,
2013-02-26 03:25:00,26.4,24.1,30.22,ESE,107,0.0,0.0,91,0.00,,,0.00,WUHU216DAVISVP2,2013-02-26 08:25:00,
2013-02-26 03:30:00,26.5,24.2,30.21,ESE,107,0.0,0.0,91,0.00,,,0.00,WUHU216DAVISVP2,2013-02-26 08:30:00,
2013-02-26 03:35:00,26.5,24.2,30.21,ESE,107,0.0,0.0,91,0.00,,,0.00,WUHU216DAVISVP2,2013-02-26 08:35:00,
2013-02-26 03:40:00,26.5,24.2,30.21,ESE,107,0.0,0.0,91,0.00,,,0.00,WUHU216DAVISVP2,2013-02-26 08:40:00,
2013-02-26 03:45:00,26.5,23.9,30.20,ESE,107,0.0,0.0,90,0.00,,,0.00,WUHU216DAVISVP2,2013-02-26 08:45:00,
2013-02-26 03:50:00,26.5,23.9,30.21,ESE,107,0.0,0.0,90,0.00,,,0.00,WUHU216DAVISVP2,2013-02-26 08:50:00,
2013-02-26 03:55:00,26.4,23.8,30.21,ESE,107,0.0,0.0,90,0.00,,,0.00,WUHU216DAVISVP2,2013-02-26 08:55:00,
2013-02-26 04:00:00,26.4,23.8,30.21,ESE,107,0.0,0.0,90,0.00,,,0.00,WUHU216DAVISVP2,2013-02-26 09:00:00,
2013-02-26 04:05:00,26.4,23.8,30.20,ESE,107,0.0,0.0,90,0.00,,,0.00,WUHU216DAVISVP2,2013-02-26 09:05:00,
2013-02-26 04:10:00,26.3,23.7,30.20,ESE,107,0.0,0.0,90,0.00,,,0.00,WUHU216DAVISVP2,2013-02-26 09:10:00,
2013-02-26 04:15:00,26.3,23.7,30.20,ESE,107,0.0,0.0,90,0.00,,,0.00,WUHU216DAVISVP2,2013-02-26 09:15:00,
2013-02-26 04:20:00,26.2,23.6,30.20,ESE,107,0.0,0.0,90,0.00,,,0.00,WUHU216DAVISVP2,2013-02-26 09:20:00,
2013-02-26 04:25:00,26.2,23.6,30.20,ESE,107,0.0,0.0,90,0.00,,,0.00,WUHU216DAVISVP2,2013-02-26 09:25:00,
2013-02-26 04:30:00,26.3,23.7,30.20,ESE,107,0.0,0.0,90,0.00,,,0.00,WUHU216DAVISVP2,2013-02-26 09:30:00,
2013-02-26 04:35:00,26.3,23.7,30.20,ESE,107,0.0,0.0,90,0.00,,,0.00,WUHU216DAVISVP2,2013-02-26 09:35:00,
2013-02-26 04:40:00,26.3,23.7,30.20,ESE,107,0.0,0.0,90,0.00,,,0.00,WUHU216DAVISVP2,2013-02-26 09:40:00,
2013-02-26 04:45:00,26.4,24.1,30.19,ESE,107,0.0,0.0,91,0.00,,,0.00,WUHU216DAVISVP2,2013-02-26 09:45:00,
2013-02-26 04:50:00,26.4,24.1,30.18,ESE,107,0.0,0.0,91,0.00,,,0.00,WUHU216DAVISVP2,2013-02-26 09:50:00,
2013-02-26 04:55:00,26.5,24.2,30.18,ESE,107,0.0,0.0,91,0.00,,,0.00,WUHU216DAVISVP2,2013-02-26 09:55:00,
2013-02-26 05:00:00,26.7,24.4,30.18,ESE,107,0.0,0.0,91,0.00,,,0.00,WUHU216DAVISVP2,2013-02-26 10:00:00,
2013-02-26 05:05:00,26.9,24.8,30.18,ESE,107,0.0,0.0,92,0.00,,,0.00,WUHU216DAVISVP2,2013-02-26 10:05:00,
2013-02-26 05:10:00,27.1,25.0,30.18,ESE,107,0.0,0.0,92,0.00,,,0.00,WUHU216DAVISVP2,2013-02-26 10:10:00,
2013-02-26 05:15:00,27.1,25.0,30.19,ESE,107,0.0,0.0,92,0.00,,,0.00,WUHU216DAVISVP2,2013-02-26 10:15:00,
2013-02-26 05:20:00,27.2,25.1,30.19,ESE,107,0.0,0.0,92,0.00,,,0.00,WUHU216DAVISVP2,2013-02-26 10:20:00,
2013-02-26 05:25:00,27.4,25.3,30.19,ESE,107,0.0,0.0,92,0.00,,,0.00,WUHU216DAVISVP2,2013-02-26 10:25:00,
2013-02-26 05:30:00,27.5,25.7,30.20,ESE,107,0.0,0.0,93,0.00,,,0.00,WUHU216DAVISVP2,2013-02-26 10:30:00,
2013-02-26 05:35:00,27.6,25.8,30.20,ESE,107,0.0,0.0,93,0.00,,,0.00,WUHU216DAVISVP2,2013-02-26 10:35:00,
2013-02-26 05:40:00,27.6,25.5,30.20,ESE,107,0.0,0.0,92,0.00,,,0.00,WUHU216DAVISVP2,2013-02-26 10:40:00,
2013-02-26 05:45:00,27.6,25.5,30.20,ESE,107,0.0,0.0,92,0.00,,,0.00,WUHU216DAVISVP2,2013-02-26 10:45:00,
2013-02-26 05:50:00,27.6,25.5,30.20,ESE,107,0.0,0.0,92,0.00,,,0.00,WUHU216DAVISVP2,2013-02-26 10:50:00,
2013-02-26 05:55:00,27.5,25.4,30.20,ESE,107,0.0,0.0,92,0.00,,,0.00,WUHU216DAVISVP2,2013-02-26 10:55:00,
2013-02-26 06:00:00,27.5,25.2,30.20,ESE,107,0.0,0.0,91,0.00,,,0.00,WUHU216DAVISVP2,2013-02-26 11:00:00,
2013-02-26 06:05:00,27.4,25.3,30.20,ESE,107,0.0,0.0,92,0.00,,,0.00,WUHU216DAVISVP2,2013-02-26 11:05:00,
2013-02-26 06:10:00,27.4,25.1,30.21,ESE,107,0.0,0.0,91,0.00,,,0.00,WUHU216DAVISVP2,2013-02-26 11:10:00,
2013-02-26 06:15:00,27.4,25.1,30.21,ESE,107,0.0,0.0,91,0.00,,,0.00,WUHU216DAVISVP2,2013-02-26 11:15:00,
2013-02-26 06:20:00,27.4,25.3,30.22,ESE,107,0.0,0.0,92,0.00,,,0.00,WUHU216DAVISVP2,2013-02-26 11:20:00,
2013-02-26 06:25:00,27.3,25.2,30.22,ESE,107,0.0,0.0,92,0.00,,,0.00,WUHU216DAVISVP2,2013-02-26 11:25:00,
2013-02-26 06:30:00,27.4,25.3,30.22,ESE,107,0.0,0.0,92,0.00,,,0.00,WUHU216DAVISVP2,2013-02-26 11:30:00,
2013-02-26 06:35:00,27.4,25.3,30.22,ESE,107,0.0,0.0,92,0.00,,,0.00,WUHU216DAVISVP2,2013-02-26 11:35:00,
2013-02-26 06:40:00,27.5,25.4,30.21,ESE,107,0.0,0.0,92,0.00,,,0.00,WUHU216DAVISVP2,2013-02-26 11:40:00,
2013-02-26 06:45:00,27.6,25.5,30.21,ESE,107,0.0,0.0,92,0.00,,,0.00,WUHU216DAVISVP2,2013-02-26 11:45:00,
2013-02-26 06:50:00,27.7,25.6,30.21,ESE,107,0.0,0.0,92,0.00,,,0.00,WUHU216DAVISVP2,2013-02-26 11:50:00,
2013-02-26 06:55:00,27.8,25.7,30.21,ESE,107,0.0,0.0,92,0.00,,,0.00,WUHU216DAVISVP2,2013-02-26 11:55:00,
2013-02-26 07:00:00,27.8,25.7,30.21,ESE,107,0.0,0.0,92,0.00,,,0.00,WUHU216DAVISVP2,2013-02-26 12:00:00,
2013-02-26 07:05:00,27.9,25.8,30.20,ESE,107,0.0,0.0,92,0.00,,,0.00,WUHU216DAVISVP2,2013-02-26 12:05:00,
2013-02-26 07:10:00,28.1,26.0,30.20,WSW,252,0.0,1.0,92,0.00,,,0.00,WUHU216DAVISVP2,2013-02-26 12:10:00,
2013-02-26 07:15:00,28.2,26.4,30.20,WSW,252,0.0,1.0,93,0.00,,,0.00,WUHU216DAVISVP2,2013-02-26 12:15:00,
2013-02-26 07:20:00,28.3,26.5,30.20,WSW,252,0.0,1.0,93,0.00,,,0.00,WUHU216DAVISVP2,2013-02-26 12:20:00,
2013-02-26 07:25:00,28.5,26.7,30.19,WSW,252,0.0,1.0,93,0.00,,,0.00,WUHU216DAVISVP2,2013-02-26 12:25:00,
2013-02-26 07:30:00,28.7,26.9,30.19,WSW,252,0.0,0.0,93,0.00,,,0.00,WUHU216DAVISVP2,2013-02-26 12:30:00,
2013-02-26 07:35:00,28.9,27.1,30.20,WSW,252,0.0,0.0,93,0.00,,,0.00,WUHU216DAVISVP2,2013-02-26 12:35:00,
2013-02-26 07:40:00,29.1,27.3,30.20,WSW,252,0.0,0.0,93,0.00,,,0.00,WUHU216DAVISVP2,2013-02-26 12:40:00,
2013-02-26 07:45:00,29.4,27.8,30.21,WSW,252,0.0,0.0,94,0.00,,,0.00,WUHU216DAVISVP2,2013-02-26 12:45:00,
2013-02-26 07:50:00,29.6,28.0,30.21,WSW,252,0.0,0.0,94,0.00,,,0.00,WUHU216DAVISVP2,2013-02-26 12:50:00,
2013-02-26 07:55:00,29.8,28.2,30.21,WSW,252,0.0,0.0,94,0.00,,,0.00,WUHU216DAVISVP2,2013-02-26 12:55:00,
2013-02-26 08:00:00,30.1,28.5,30.21,WSW,252,0.0,0.0,94,0.00,,,0.00,WUHU216DAVISVP2,2013-02-26 13:00:00,
2013-02-26 08:05:00,30.4,28.8,30.21,WSW,252,0.0,1.0,94,0.00,,,0.00,WUHU216DAVISVP2,2013-02-26 13:05:00,
2013-02-26 08:10:00,30.6,29.0,30.21,WSW,252,0.0,1.0,94,0.00,,,0.00,WUHU216DAVISVP2,2013-02-26 13:10:00,
2013-02-26 08:15:00,30.9,29.3,30.20,WSW,252,2.0,2.0,94,0.00,,,0.00,WUHU216DAVISVP2,2013-02-26 13:15:00,
2013-02-26 08:20:00,31.4,29.8,30.20,NE,42,0.0,2.0,94,0.00,,,0.00,WUHU216DAVISVP2,2013-02-26 13:20:00,
2013-02-26 08:25:00,31.8,30.5,30.20,NE,38,0.0,2.0,95,0.00,,,0.00,WUHU216DAVISVP2,2013-02-26 13:25:00,
2013-02-26 08:30:00,32.2,30.6,30.20,NE,40,0.0,2.0,94,0.00,,,0.00,WUHU216DAVISVP2,2013-02-26 13:30:00,
2013-02-26 08:35:00,32.6,31.0,30.20,East,100,0.0,4.0,94,0.00,,,0.00,WUHU216DAVISVP2,2013-02-26 13:35:00,
2013-02-26 08:40:00,33.1,31.5,30.20,East,90,2.0,4.0,94,0.00,,,0.00,WUHU216DAVISVP2,2013-02-26 13:40:00,
2013-02-26 08:45:00,33.5,31.6,30.20,East,90,0.0,5.0,93,0.00,,,0.00,WUHU216DAVISVP2,2013-02-26 13:45:00,
2013-02-26 08:50:00,33.8,31.7,30.20,East,90,0.0,5.0,92,0.00,,,0.00,WUHU216DAVISVP2,2013-02-26 13:50:00,
2013-02-26 08:55:00,34.3,32.2,30.20,East,92,0.0,5.0,92,0.00,,,0.00,WUHU216DAVISVP2,2013-02-26 13:55:00,
2013-02-26 09:00:00,34.6,32.2,30.20,East,92,0.0,5.0,91,0.00,,,0.00,WUHU216DAVISVP2,2013-02-26 14:00:00,
2013-02-26 09:05:00,35.0,32.3,30.21,East,92,0.0,2.0,90,0.00,,,0.00,WUHU216DAVISVP2,2013-02-26 14:05:00,
2013-02-26 09:10:00,35.3,32.3,30.21,East,87,1.0,4.0,89,0.00,,,0.00,WUHU216DAVISVP2,2013-02-26 14:10:00,
2013-02-26 09:15:00,35.7,32.5,30.21,East,96,0.0,4.0,88,0.00,,,0.00,WUHU216DAVISVP2,2013-02-26 14:15:00,
2013-02-26 09:20:00,36.0,32.8,30.20,East,82,1.0,5.0,88,0.00,,,0.00,WUHU216DAVISVP2,2013-02-26 14:20:00,
2013-02-26 09:25:00,36.4,32.9,30.20,NE,47,0.0,5.0,87,0.00,,,0.00,WUHU216DAVISVP2,2013-02-26 14:25:00,
2013-02-26 09:30:00,36.8,32.7,30.21,NE,42,4.0,4.0,85,0.00,,,0.00,WUHU216DAVISVP2,2013-02-26 14:30:00,
2013-02-26 09:35:00,37.1,33.0,30.21,NE,53,0.0,4.0,85,0.00,,,0.00,WUHU216DAVISVP2,2013-02-26 14:35:00,
2013-02-26 09:40:00,37.5,33.1,30.21,NE,38,3.0,4.0,84,0.00,,,0.00,WUHU216DAVISVP2,2013-02-26 14:40:00,
2013-02-26 09:45:00,37.7,32.7,30.21,East,96,2.0,8.0,82,0.00,,,0.00,WUHU216DAVISVP2,2013-02-26 14:45:00,
2013-02-26 09:50:00,37.9,32.3,30.21,ENE,58,1.0,8.0,80,0.00,,,0.00,WUHU216DAVISVP2,2013-02-26 14:50:00,
2013-02-26 09:55:00,38.1,32.2,30.21,NNE,29,1.0,8.0,79,0.00,,,0.00,WUHU216DAVISVP2,2013-02-26 14:55:00,
2013-02-26 10:00:00,38.3,31.8,30.21,ESE,103,0.0,8.0,77,0.00,,,0.00,WUHU216DAVISVP2,2013-02-26 15:00:00,
2013-02-26 10:05:00,38.5,32.3,30.21,ESE,117,0.0,8.0,78,0.00,,,0.00,WUHU216DAVISVP2,2013-02-26 15:05:00,
2013-02-26 10:10:00,38.8,31.6,30.20,ESE,102,2.0,10.0,75,0.00,,,0.00,WUHU216DAVISVP2,2013-02-26 15:10:00,
2013-02-26 10:15:00,38.8,31.6,30.20,East,98,7.0,10.0,75,0.00,,,0.00,WUHU216DAVISVP2,2013-02-26 15:15:00,
2013-02-26 10:20:00,39.1,31.9,30.20,ESE,107,0.0,10.0,75,0.00,,,0.00,WUHU216DAVISVP2,2013-02-26 15:20:00,
2013-02-26 10:25:00,39.2,31.3,30.19,ESE,113,2.0,10.0,73,0.00,,,0.00,WUHU216DAVISVP2,2013-02-26 15:25:00,
2013-02-26 10:30:00,39.3,31.4,30.19,NE,49,3.0,9.0,73,0.00,,,0.00,WUHU216DAVISVP2,2013-02-26 15:30:00,
2013-02-26 10:35:00,39.3,31.4,30.18,SSE,156,1.0,8.0,73,0.00,,,0.00,WUHU216DAVISVP2,2013-02-26 15:35:00,
2013-02-26 10:40:00,39.3,31.8,30.18,East,90,3.0,8.0,74,0.00,,,0.00,WUHU216DAVISVP2,2013-02-26 15:40:00,
2013-02-26 10:45:00,39.4,31.5,30.18,ENE,78,0.0,8.0,73,0.00,,,0.00,WUHU216DAVISVP2,2013-02-26 15:45:00,
2013-02-26 10:50:00,39.5,32.0,30.17,East,92,1.0,7.0,74,0.00,,,0.00,WUHU216DAVISVP2,2013-02-26 15:50:00,
2013-02-26 10:55:00,39.6,31.7,30.18,SE,125,1.0,6.0,73,0.00,,,0.00,WUHU216DAVISVP2,2013-02-26 15:55:00,
2013-02-26 11:00:00,39.7,31.8,30.18,East,86,1.0,6.0,73,0.00,,,0.00,WUHU216DAVISVP2,2013-02-26 16:00:00,
2013-02-26 11:05:00,39.7,31.8,30.18,ESE,114,2.0,6.0,73,0.00,,,0.00,WUHU216DAVISVP2,2013-02-26 16:05:00,
2013-02-26 11:10:00,39.8,31.9,30.18,ENE,77,0.0,6.0,73,0.00,,,0.00,WUHU216DAVISVP2,2013-02-26 16:10:00,
2013-02-26 11:15:00,39.9,32.3,30.18,East,91,5.0,6.0,74,0.00,,,0.00,WUHU216DAVISVP2,2013-02-26 16:15:00,
2013-02-26 11:20:00,40.1,32.2,30.17,ENE,63,0.0,8.0,73,0.00,,,0.00,WUHU216DAVISVP2,2013-02-26 16:20:00,
2013-02-26 11:25:00,40.2,32.6,30.17,East,88,1.0,9.0,74,0.00,,,0.00,WUHU216DAVISVP2,2013-02-26 16:25:00,
2013-02-26 11:30:00,40.2,32.3,30.17,ENE,59,3.0,9.0,73,0.00,,,0.00,WUHU216DAVISVP2,2013-02-26 16:30:00,
2013-02-26 11:35:00,40.1,32.5,30.17,East,92,1.0,9.0,74,0.00,,,0.00,WUHU216DAVISVP2,2013-02-26 16:35:00,
2013-02-26 11:40:00,40.1,32.5,30.17,West,277,1.0,9.0,74,0.00,,,0.00,WUHU216DAVISVP2,2013-02-26 16:40:00,
2013-02-26 11:45:00,40.2,32.6,30.17,ESE,123,2.0,9.0,74,0.00,,,0.00,WUHU216DAVISVP2,2013-02-26 16:45:00,
2013-02-26 11:50:00,40.2,32.6,30.16,East,88,0.0,9.0,74,0.00,,,0.00,WUHU216DAVISVP2,2013-02-26 16:50:00,
2013-02-26 11:55:00,40.3,33.1,30.16,East,101,2.0,9.0,75,0.00,,,0.00,WUHU216DAVISVP2,2013-02-26 16:55:00,
2013-02-26 12:00:00,40.4,33.2,30.15,ESE,110,0.0,9.0,75,0.00,,,0.00,WUHU216DAVISVP2,2013-02-26 17:00:00,
2013-02-26 12:05:00,40.5,33.3,30.15,East,99,1.0,9.0,75,0.00,,,0.00,WUHU216DAVISVP2,2013-02-26 17:05:00,
2013-02-26 12:10:00,40.6,33.4,30.14,NE,47,1.0,9.0,75,0.00,,,0.00,WUHU216DAVISVP2,2013-02-26 17:10:00,
2013-02-26 12:15:00,40.6,33.4,30.14,East,92,0.0,9.0,75,0.00,,,0.00,WUHU216DAVISVP2,2013-02-26 17:15:00,
2013-02-26 12:21:00,40.7,33.8,30.14,ESE,116,4.0,9.0,76,0.00,,,0.00,WUHU216DAVISVP2,2013-02-26 17:21:00,
2013-02-26 12:26:00,40.7,33.8,30.13,East,99,3.0,9.0,76,0.00,,,0.00,WUHU216DAVISVP2,2013-02-26 17:26:00,
2013-02-26 12:31:00,40.8,34.2,30.13,ENE,67,1.0,8.0,77,0.00,,,0.00,WUHU216DAVISVP2,2013-02-26 17:31:00,
2013-02-26 12:36:00,40.8,34.5,30.13,South,177,2.0,8.0,78,0.00,,,0.00,WUHU216DAVISVP2,2013-02-26 17:36:00,
2013-02-26 12:40:00,40.8,34.8,30.13,NE,36,5.0,8.0,79,0.00,,,0.00,WUHU216DAVISVP2,2013-02-26 17:40:00,
2013-02-26 12:46:00,40.7,35.3,30.13,East,88,1.0,5.0,81,0.00,,,0.00,WUHU216DAVISVP2,2013-02-26 17:46:00,
2013-02-26 12:50:00,40.6,35.5,30.12,ENE,63,1.0,5.0,82,0.00,,,0.00,WUHU216DAVISVP2,2013-02-26 17:50:00,
2013-02-26 12:55:00,40.5,35.7,30.12,NE,53,0.0,5.0,83,0.00,,,0.00,WUHU216DAVISVP2,2013-02-26 17:55:00,
2013-02-26 13:01:00,40.3,35.5,30.11,NE,45,0.0,4.0,83,0.01,,,0.01,WUHU216DAVISVP2,2013-02-26 18:01:00,
2013-02-26 13:06:00,40.3,36.1,30.12,NE,48,2.0,4.0,85,0.01,,,0.01,WUHU216DAVISVP2,2013-02-26 18:06:00,
2013-02-26 13:11:00,40.2,36.3,30.11,NE,56,1.0,4.0,86,0.01,,,0.01,WUHU216DAVISVP2,2013-02-26 18:11:00,
2013-02-26 13:16:00,40.3,36.7,30.11,North,5,0.0,4.0,87,0.01,,,0.01,WUHU216DAVISVP2,2013-02-26 18:16:00,
2013-02-26 13:21:00,40.4,37.1,30.10,NE,45,0.0,3.0,88,0.01,,,0.01,WUHU216DAVISVP2,2013-02-26 18:21:00,
2013-02-26 13:25:00,40.4,37.1,30.10,ESE,111,0.0,3.0,88,0.01,,,0.01,WUHU216DAVISVP2,2013-02-26 18:25:00,
2013-02-26 13:30:00,40.5,37.5,30.09,NE,38,1.0,3.0,89,0.01,,,0.01,WUHU216DAVISVP2,2013-02-26 18:30:00,
2013-02-26 13:35:00,40.5,37.5,30.08,ENE,59,0.0,4.0,89,0.01,,,0.01,WUHU216DAVISVP2,2013-02-26 18:35:00,
2013-02-26 13:40:00,40.6,37.6,30.08,NE,50,1.0,4.0,89,0.01,,,0.01,WUHU216DAVISVP2,2013-02-26 18:40:00,
2013-02-26 13:45:00,40.8,38.1,30.07,East,86,0.0,4.0,90,0.02,,,0.02,WUHU216DAVISVP2,2013-02-26 18:45:00,
2013-02-26 13:50:00,41.0,38.5,30.07,NE,37,1.0,4.0,91,0.02,,,0.02,WUHU216DAVISVP2,2013-02-26 18:50:00,
2013-02-26 13:55:00,41.1,38.3,30.06,East,79,1.0,4.0,90,0.02,,,0.02,WUHU216DAVISVP2,2013-02-26 18:55:00,
2013-02-26 14:00:00,41.4,38.9,30.06,ESE,110,3.0,6.0,91,0.01,,,0.02,WUHU216DAVISVP2,2013-02-26 19:00:00,
2013-02-26 14:05:00,41.6,38.6,30.07,NE,40,1.0,11.0,89,0.01,,,0.02,WUHU216DAVISVP2,2013-02-26 19:05:00,
2013-02-26 14:10:00,41.7,38.7,30.06,ESE,107,4.0,11.0,89,0.01,,,0.02,WUHU216DAVISVP2,2013-02-26 19:10:00,
2013-02-26 14:15:00,41.8,38.8,30.06,East,82,0.0,12.0,89,0.01,,,0.02,WUHU216DAVISVP2,2013-02-26 19:15:00,
2013-02-26 14:20:00,41.8,38.8,30.06,ESE,107,2.0,12.0,89,0.01,,,0.02,WUHU216DAVISVP2,2013-02-26 19:20:00,
2013-02-26 14:25:00,41.8,38.8,30.05,NE,38,0.0,12.0,89,0.01,,,0.02,WUHU216DAVISVP2,2013-02-26 19:25:00,
2013-02-26 14:30:00,41.8,38.8,30.05,ENE,78,0.0,6.0,89,0.01,,,0.02,WUHU216DAVISVP2,2013-02-26 19:30:00,
2013-02-26 14:35:00,41.8,38.8,30.04,ESE,104,1.0,6.0,89,0.01,,,0.02,WUHU216DAVISVP2,2013-02-26 19:35:00,
2013-02-26 14:40:00,41.8,38.8,30.04,ENE,65,1.0,6.0,89,0.02,,,0.03,WUHU216DAVISVP2,2013-02-26 19:40:00,
2013-02-26 14:45:00,41.8,38.8,30.03,ENE,65,3.0,10.0,89,0.01,,,0.03,WUHU216DAVISVP2,2013-02-26 19:45:00,
2013-02-26 14:50:00,41.8,38.8,30.02,ESE,105,5.0,10.0,89,0.01,,,0.03,WUHU216DAVISVP2,2013-02-26 19:50:00,
2013-02-26 14:55:00,41.8,39.0,30.02,East,88,0.0,10.0,90,0.01,,,0.03,WUHU216DAVISVP2,2013-02-26 19:55:00,
2013-02-26 15:00:00,41.8,39.0,30.01,East,89,5.0,10.0,90,0.02,,,0.04,WUHU216DAVISVP2,2013-02-26 20:00:00,
2013-02-26 15:05:00,41.8,38.8,30.02,ESE,109,4.0,9.0,89,0.02,,,0.04,WUHU216DAVISVP2,2013-02-26 20:05:00,
2013-02-26 15:10:00,41.8,38.8,30.01,NW,322,3.0,9.0,89,0.02,,,0.04,WUHU216DAVISVP2,2013-02-26 20:10:00,
2013-02-26 15:15:00,41.9,38.9,30.01,ESE,109,0.0,9.0,89,0.02,,,0.04,WUHU216DAVISVP2,2013-02-26 20:15:00,
2013-02-26 15:20:00,41.9,38.9,30.00,NE,38,4.0,8.0,89,0.02,,,0.04,WUHU216DAVISVP2,2013-02-26 20:20:00,
2013-02-26 15:25:00,42.0,39.0,30.00,NE,53,3.0,9.0,89,0.02,,,0.04,WUHU216DAVISVP2,2013-02-26 20:25:00,
2013-02-26 15:30:00,42.0,39.0,30.00,NE,50,4.0,13.0,89,0.03,,,0.05,WUHU216DAVISVP2,2013-02-26 20:30:00,
2013-02-26 15:35:00,42.1,39.1,29.98,ESE,109,1.0,13.0,89,0.03,,,0.05,WUHU216DAVISVP2,2013-02-26 20:35:00,
2013-02-26 15:40:00,42.2,39.2,29.98,SSW,193,7.0,13.0,89,0.03,,,0.06,WUHU216DAVISVP2,2013-02-26 20:40:00,
2013-02-26 15:45:00,42.3,39.3,29.98,East,88,7.0,13.0,89,0.03,,,0.06,WUHU216DAVISVP2,2013-02-26 20:45:00,
2013-02-26 15:50:00,42.3,39.3,29.97,ESE,105,4.0,14.0,89,0.03,,,0.06,WUHU216DAVISVP2,2013-02-26 20:50:00,
2013-02-26 15:55:00,42.4,39.3,29.96,South,174,2.0,14.0,89,0.03,,,0.06,WUHU216DAVISVP2,2013-02-26 20:55:00,
2013-02-26 16:00:00,42.4,39.3,29.96,East,96,5.0,14.0,89,0.02,,,0.06,WUHU216DAVISVP2,2013-02-26 21:00:00,
2013-02-26 16:05:00,42.4,39.3,29.95,ESE,103,3.0,14.0,89,0.03,,,0.07,WUHU216DAVISVP2,2013-02-26 21:05:00,
2013-02-26 16:10:00,42.4,39.3,29.94,ENE,59,3.0,17.0,89,0.03,,,0.07,WUHU216DAVISVP2,2013-02-26 21:10:00,
2013-02-26 16:15:00,42.4,39.3,29.94,ENE,67,9.0,17.0,89,0.03,,,0.07,WUHU216DAVISVP2,2013-02-26 21:15:00,
2013-02-26 16:20:00,42.5,39.4,29.94,ESE,123,10.0,17.0,89,0.03,,,0.07,WUHU216DAVISVP2,2013-02-26 21:20:00,
2013-02-26 16:25:00,42.4,39.3,29.93,ENE,76,3.0,17.0,89,0.03,,,0.07,WUHU216DAVISVP2,2013-02-26 21:25:00,
2013-02-26 16:30:00,42.4,39.3,29.93,ESE,111,3.0,13.0,89,0.02,,,0.07,WUHU216DAVISVP2,2013-02-26 21:30:00,
2013-02-26 16:35:00,42.4,39.1,29.93,SE,145,3.0,16.0,88,0.02,,,0.07,WUHU216DAVISVP2,2013-02-26 21:35:00,
2013-02-26 16:40:00,42.6,39.3,29.92,NNE,29,2.0,24.0,88,0.01,,,0.07,WUHU216DAVISVP2,2013-02-26 21:40:00,
2013-02-26 16:45:00,42.6,39.3,29.92,East,95,8.0,24.0,88,0.01,,,0.07,WUHU216DAVISVP2,2013-02-26 21:45:00,
2013-02-26 16:50:00,42.7,39.1,29.91,NE,40,5.0,24.0,87,0.01,,,0.07,WUHU216DAVISVP2,2013-02-26 21:50:00,
2013-02-26 16:55:00,42.8,39.2,29.91,SE,127,8.0,24.0,87,0.01,,,0.07,WUHU216DAVISVP2,2013-02-26 21:55:00,
2013-02-26 17:00:00,42.9,39.3,29.90,ENE,78,3.0,19.0,87,0.01,,,0.07,WUHU216DAVISVP2,2013-02-26 22:00:00,
2013-02-26 17:05:00,42.9,39.3,29.89,NE,55,2.0,18.0,87,0.00,,,0.07,WUHU216DAVISVP2,2013-02-26 22:05:00,
2013-02-26 17:10:00,42.8,39.2,29.89,ESE,109,18.0,18.0,87,0.00,,,0.07,WUHU216DAVISVP2,2013-02-26 22:10:00,
2013-02-26 17:15:00,42.8,39.2,29.88,ESE,119,1.0,30.0,87,0.01,,,0.08,WUHU216DAVISVP2,2013-02-26 22:15:00,
2013-02-26 17:20:00,42.7,39.1,29.88,East,86,6.0,30.0,87,0.01,,,0.08,WUHU216DAVISVP2,2013-02-26 22:20:00,
2013-02-26 17:25:00,42.6,39.0,29.87,ESE,107,8.0,30.0,87,0.01,,,0.08,WUHU216DAVISVP2,2013-02-26 22:25:00,
2013-02-26 17:30:00,42.6,39.0,29.87,East,99,8.0,22.0,87,0.01,,,0.08,WUHU216DAVISVP2,2013-02-26 22:30:00,
2013-02-26 17:35:00,42.5,39.2,29.86,SE,133,9.0,22.0,88,0.01,,,0.08,WUHU216DAVISVP2,2013-02-26 22:35:00,
2013-02-26 17:40:00,42.5,38.9,29.86,ENE,59,4.0,26.0,87,0.01,,,0.08,WUHU216DAVISVP2,2013-02-26 22:40:00,
2013-02-26 17:45:00,42.5,39.2,29.86,ESE,122,5.0,26.0,88,0.01,,,0.08,WUHU216DAVISVP2,2013-02-26 22:45:00,
2013-02-26 17:50:00,42.4,39.1,29.87,ESE,117,8.0,26.0,88,0.01,,,0.08,WUHU216DAVISVP2,2013-02-26 22:50:00,
2013-02-26 17:55:00,42.4,39.3,29.86,WNW,297,3.0,26.0,89,0.01,,,0.08,WUHU216DAVISVP2,2013-02-26 22:55:00,
2013-02-26 18:00:00,42.3,39.3,29.85,East,96,3.0,17.0,89,0.01,,,0.08,WUHU216DAVISVP2,2013-02-26 23:00:00,
2013-02-26 18:05:00,42.2,39.2,29.84,ENE,60,3.0,17.0,89,0.01,,,0.08,WUHU216DAVISVP2,2013-02-26 23:05:00,
2013-02-26 18:10:00,42.2,39.4,29.84,ENE,63,4.0,17.0,90,0.01,,,0.09,WUHU216DAVISVP2,2013-02-26 23:10:00,
2013-02-26 18:15:00,42.1,39.3,29.84,ESE,111,9.0,16.0,90,0.01,,,0.09,WUHU216DAVISVP2,2013-02-26 23:15:00,
2013-02-26 18:20:00,42.1,39.6,29.84,East,92,9.0,23.0,91,0.01,,,0.09,WUHU216DAVISVP2,2013-02-26 23:20:00,
2013-02-26 18:25:00,42.0,39.5,29.83,NE,49,5.0,23.0,91,0.01,,,0.09,WUHU216DAVISVP2,2013-02-26 23:25:00,
2013-02-26 18:30:00,42.0,39.5,29.82,East,94,6.0,23.0,91,0.01,,,0.09,WUHU216DAVISVP2,2013-02-26 23:30:00,
2013-02-26 18:35:00,42.0,39.5,29.83,NNE,24,3.0,23.0,91,0.01,,,0.09,WUHU216DAVISVP2,2013-02-26 23:35:00,
2013-02-26 18:40:00,42.0,39.8,29.81,SE,138,4.0,18.0,92,0.02,,,0.10,WUHU216DAVISVP2,2013-02-26 23:40:00,
2013-02-26 18:45:00,42.0,39.8,29.82,SE,128,4.0,18.0,92,0.02,,,0.10,WUHU216DAVISVP2,2013-02-26 23:45:00,
2013-02-26 18:50:00,42.0,39.8,29.81,East,96,8.0,18.0,92,0.04,,,0.12,WUHU216DAVISVP2,2013-02-26 23:50:00,
2013-02-26 18:55:00,41.9,40.0,29.81,ENE,69,2.0,17.0,93,0.06,,,0.14,WUHU216DAVISVP2,2013-02-26 23:55:00,
2013-02-26 19:00:00,41.8,39.9,29.80,East,83,5.0,21.0,93,0.07,,,0.15,WUHU216DAVISVP2,2013-02-27 00:00:00,
2013-02-26 19:05:00,41.8,40.2,29.80,ESE,107,10.0,21.0,94,0.08,,,0.16,WUHU216DAVISVP2,2013-02-27 00:05:00,
2013-02-26 19:10:00,41.8,40.2,29.79,ESE,107,3.0,21.0,94,0.08,,,0.17,WUHU216DAVISVP2,2013-02-27 00:10:00,
2013-02-26 19:15:00,41.9,40.3,29.79,ESE,102,3.0,21.0,94,0.09,,,0.18,WUHU216DAVISVP2,2013-02-27 00:15:00,
2013-02-26 19:20:00,41.9,40.5,29.79,East,80,5.0,17.0,95,0.10,,,0.19,WUHU216DAVISVP2,2013-02-27 00:20:00,
2013-02-26 19:25:00,42.0,40.6,29.79,ENE,70,7.0,17.0,95,0.11,,,0.20,WUHU216DAVISVP2,2013-02-27 00:25:00,
2013-02-26 19:30:00,42.0,40.6,29.79,East,91,7.0,18.0,95,0.11,,,0.20,WUHU216DAVISVP2,2013-02-27 00:30:00,
2013-02-26 19:35:00,42.1,40.7,29.78,East,86,6.0,18.0,95,0.12,,,0.21,WUHU216DAVISVP2,2013-02-27 00:35:00,
2013-02-26 19:40:00,42.1,40.7,29.78,ESE,109,2.0,18.0,95,0.12,,,0.22,WUHU216DAVISVP2,2013-02-27 00:40:00,
2013-02-26 19:45:00,42.2,40.8,29.78,East,100,18.0,19.0,95,0.12,,,0.22,WUHU216DAVISVP2,2013-02-27 00:45:00,
2013-02-26 19:50:00,42.2,40.8,29.78,ESE,109,5.0,19.0,95,0.11,,,0.23,WUHU216DAVISVP2,2013-02-27 00:50:00,
2013-02-26 19:55:00,42.3,40.9,29.78,SW,227,1.0,19.0,95,0.10,,,0.24,WUHU216DAVISVP2,2013-02-27 00:55:00,
2013-02-26 20:00:00,42.3,40.9,29.77,ENE,57,2.0,19.0,95,0.10,,,0.25,WUHU216DAVISVP2,2013-02-27 01:00:00,
2013-02-26 20:05:00,42.3,40.9,29.77,North,5,2.0,14.0,95,0.10,,,0.26,WUHU216DAVISVP2,2013-02-27 01:05:00,
2013-02-26 20:10:00,42.3,40.9,29.76,ENE,68,5.0,17.0,95,0.09,,,0.26,WUHU216DAVISVP2,2013-02-27 01:10:00,
2013-02-26 20:15:00,42.3,40.9,29.76,NE,49,2.0,17.0,95,0.09,,,0.27,WUHU216DAVISVP2,2013-02-27 01:15:00,
2013-02-26 20:20:00,42.3,40.9,29.75,ENE,68,3.0,17.0,95,0.09,,,0.28,WUHU216DAVISVP2,2013-02-27 01:20:00,
2013-02-26 20:25:00,42.4,41.3,29.75,SE,127,5.0,17.0,96,0.08,,,0.28,WUHU216DAVISVP2,2013-02-27 01:25:00,
2013-02-26 20:30:00,42.4,41.3,29.75,East,101,9.0,16.0,96,0.10,,,0.30,WUHU216DAVISVP2,2013-02-27 01:30:00,
2013-02-26 20:35:00,42.4,41.3,29.75,East,97,5.0,19.0,96,0.11,,,0.32,WUHU216DAVISVP2,2013-02-27 01:35:00,
2013-02-26 20:40:00,42.4,41.3,29.74,East,86,3.0,19.0,96,0.12,,,0.34,WUHU216DAVISVP2,2013-02-27 01:40:00,
2013-02-26 20:45:00,42.5,41.4,29.74,NW,325,2.0,19.0,96,0.14,,,0.36,WUHU216DAVISVP2,2013-02-27 01:45:00,
2013-02-26 20:50:00,42.4,42.4,29.74,ESE,106,4.0,19.0,100,0.14,,,0.37,WUHU216DAVISVP2,2013-02-27 01:50:00,
2013-02-26 20:55:00,42.5,41.4,29.73,East,79,9.0,14.0,96,0.15,,,0.39,WUHU216DAVISVP2,2013-02-27 01:55:00,
2013-02-26 21:00:00,42.6,41.5,29.74,East,96,1.0,14.0,96,0.14,,,0.39,WUHU216DAVISVP2,2013-02-27 02:00:00,
2013-02-26 21:05:00,42.6,41.5,29.73,ESE,104,15.0,15.0,96,0.14,,,0.40,WUHU216DAVISVP2,2013-02-27 02:05:00,
2013-02-26 21:10:00,42.7,41.6,29.73,East,88,1.0,16.0,96,0.14,,,0.40,WUHU216DAVISVP2,2013-02-27 02:10:00,
2013-02-26 21:16:00,42.8,41.7,29.73,East,84,3.0,16.0,96,0.14,,,0.41,WUHU216DAVISVP2,2013-02-27 02:16:00,
2013-02-26 21:21:00,42.8,41.7,29.73,East,81,5.0,16.0,96,0.13,,,0.41,WUHU216DAVISVP2,2013-02-27 02:21:00,
2013-02-26 21:26:00,42.8,41.7,29.72,NE,35,5.0,14.0,96,0.13,,,0.41,WUHU216DAVISVP2,2013-02-27 02:26:00,
2013-02-26 21:31:00,42.9,41.8,29.73,North,10,1.0,14.0,96,0.13,,,0.43,WUHU216DAVISVP2,2013-02-27 02:31:00,
2013-02-26 21:36:00,43.0,41.9,29.72,NE,36,1.0,12.0,96,0.13,,,0.45,WUHU216DAVISVP2,2013-02-27 02:36:00,
2013-02-26 21:41:00,43.0,41.9,29.72,NE,36,2.0,11.0,96,0.11,,,0.46,WUHU216DAVISVP2,2013-02-27 02:41:00,
2013-02-26 21:46:00,43.1,42.0,29.72,ESE,110,4.0,11.0,96,0.12,,,0.48,WUHU216DAVISVP2,2013-02-27 02:46:00,
2013-02-26 21:51:00,43.1,42.0,29.72,ENE,63,1.0,8.0,96,0.12,,,0.49,WUHU216DAVISVP2,2013-02-27 02:51:00,
2013-02-26 21:56:00,43.2,42.1,29.72,ENE,73,3.0,8.0,96,0.11,,,0.50,WUHU216DAVISVP2,2013-02-27 02:56:00,
2013-02-26 22:01:00,43.2,42.1,29.72,East,84,2.0,5.0,96,0.12,,,0.51,WUHU216DAVISVP2,2013-02-27 03:01:00,
2013-02-26 22:06:00,43.2,42.1,29.71,ENE,63,5.0,5.0,96,0.11,,,0.51,WUHU216DAVISVP2,2013-02-27 03:06:00,
2013-02-26 22:11:00,43.3,42.2,29.70,North,360,1.0,8.0,96,0.11,,,0.51,WUHU216DAVISVP2,2013-02-27 03:11:00,
2013-02-26 22:16:00,43.3,42.5,29.70,NE,38,0.0,8.0,97,0.11,,,0.52,WUHU216DAVISVP2,2013-02-27 03:16:00,
2013-02-26 22:21:00,43.3,42.5,29.69,NE,54,0.0,8.0,97,0.11,,,0.52,WUHU216DAVISVP2,2013-02-27 03:21:00,
2013-02-26 22:26:00,43.4,42.6,29.69,NE,46,0.0,10.0,97,0.11,,,0.52,WUHU216DAVISVP2,2013-02-27 03:26:00,
2013-02-26 22:31:00,43.4,42.6,29.69,East,96,2.0,10.0,97,0.09,,,0.52,WUHU216DAVISVP2,2013-02-27 03:31:00,
2013-02-26 22:36:00,43.6,42.8,29.68,ESE,106,2.0,10.0,97,0.07,,,0.52,WUHU216DAVISVP2,2013-02-27 03:36:00,
2013-02-26 22:42:00,43.6,42.8,29.66,North,5,2.0,10.0,97,0.06,,,0.53,WUHU216DAVISVP2,2013-02-27 03:42:00,
2013-02-26 22:47:00,43.6,42.8,29.67,ENE,78,3.0,7.0,97,0.05,,,0.53,WUHU216DAVISVP2,2013-02-27 03:47:00,
2013-02-26 22:52:00,43.5,42.7,29.67,NNE,24,2.0,7.0,97,0.04,,,0.53,WUHU216DAVISVP2,2013-02-27 03:52:00,
2013-02-26 22:57:00,43.4,42.6,29.67,North,355,0.0,7.0,97,0.03,,,0.53,WUHU216DAVISVP2,2013-02-27 03:57:00,
2013-02-26 23:02:00,43.4,42.6,29.66,NNE,28,0.0,7.0,97,0.02,,,0.53,WUHU216DAVISVP2,2013-02-27 04:02:00,
2013-02-26 23:07:00,43.5,42.7,29.66,East,92,1.0,7.0,97,0.02,,,0.53,WUHU216DAVISVP2,2013-02-27 04:07:00,
2013-02-26 23:12:00,43.5,42.7,29.65,North,360,0.0,6.0,97,0.02,,,0.54,WUHU216DAVISVP2,2013-02-27 04:12:00,
2013-02-26 23:17:00,43.5,42.7,29.65,North,355,4.0,7.0,97,0.02,,,0.54,WUHU216DAVISVP2,2013-02-27 04:17:00,
2013-02-26 23:22:00,43.5,42.7,29.65,ENE,62,0.0,7.0,97,0.02,,,0.54,WUHU216DAVISVP2,2013-02-27 04:22:00,
2013-02-26 23:27:00,43.6,42.8,29.65,NNE,29,1.0,7.0,97,0.02,,,0.54,WUHU216DAVISVP2,2013-02-27 04:27:00,
2013-02-26 23:32:00,43.6,42.8,29.64,NE,37,0.0,7.0,97,0.02,,,0.54,WUHU216DAVISVP2,2013-02-27 04:32:00,
2013-02-26 23:37:00,43.5,42.7,29.63,NNE,15,2.0,7.0,97,0.02,,,0.54,WUHU216DAVISVP2,2013-02-27 04:37:00,
2013-02-26 23:42:00,43.5,42.7,29.63,NE,39,3.0,10.0,97,0.01,,,0.54,WUHU216DAVISVP2,2013-02-27 04:42:00,
2013-02-26 23:47:00,43.5,42.7,29.63,NE,55,3.0,10.0,97,0.02,,,0.55,WUHU216DAVISVP2,2013-02-27 04:47:00,
2013-02-26 23:52:00,43.5,42.7,29.62,ENE,59,2.0,10.0,97,0.03,,,0.56,WUHU216DAVISVP2,2013-02-27 04:52:00,
2013-02-26 23:57:00,43.5,42.7,29.62,ENE,69,2.0,10.0,97,0.03,,,0.56,WUHU216DAVISVP2,2013-02-27 04:57:00,